{"data":{"norad_id":58864,"epoch":"2026-09-20T22:36:04.775616Z","epoch_age_seconds":114311,"freshness":"FRESH","line1":"1 58864U 24019M   26263.94172194 -.00000589  00000+0 -11875-4 0  9992","line2":"2 58864  43.0023 226.2457 0000772 272.3210  87.7553 15.27576775148949","mean_motion":15.27576775,"eccentricity":7.72e-5,"inclination_deg":43.0023,"raan_deg":226.2457,"arg_perigee_deg":272.321,"mean_anomaly_deg":87.7553,"bstar":-1.1875e-5,"rev_number":14894,"period_min":94.266947728372,"perigee_km":482.52906855471,"apogee_km":483.58843717895,"semimajor_km":6861.1957528668,"source":"CELESTRAK","updated_at":"2026-09-21T09:00:33.989174Z"}}